Portada
METAR-TAF:

METAR-TAF

Aeroports :

Lamerd, Iran

latitud: 27-22-22N, longitud: 53-11-20E, altitud: 408 m

Observació

L'informe es va fer fa 1 hora i 57 minuts, a les 15:00 UTC
Vent 8 kt del Oest/Nord-Oest
Temperatura 40°C
Humitat 19%
Pressió 1004 hPa
Visibilitat 10 km o més
sense núvols per sota de 1500 mi sense presència de cumulonimbus.

METAR: OISR 251500Z 29008KT CAVOK 40/12 Q1004 A2965 NOSIG

Hora: 21:27 (16:57 UTC)


TAF: manca

Observacions i pronòstics meteorològics de més de 4000 aeroports (METAR i TAF).

Les estacions disponibles són els punts grocs i vermells al mapa.

Posi el ratolí al punt desitjat per veure el nom de l'estació.

Feu clic per veure les observacions i els pronòstics meteorològics.

Per canviar el mapa: feu clic els botons verds amb una creu de color negre per apropar; al botó verd amb un guió per allunyar la imatge; o en les fletxes verdes per a mapes adjacents.


METAR-TAF: